Date,TemperatureHighF,TemperatureAvgF,TemperatureLowF,DewpointHighF,DewpointAvgF,DewpointLowF,HumidityHigh,HumidityAvg,HumidityLow,PressureMaxIn,PressureMinIn,WindSpeedMaxMPH,WindSpeedAvgMPH,GustSpeedMaxMPH,PrecipitationSumIn
2012-1-1,66.0,46.1,30.6,25.4,20.2,13.0,70,41,13,30.42,30.29,4,0,7,0.00
2012-1-2,68.8,47.2,32.8,23.1,19.7,14.1,62,38,12,30.41,30.25,3,0,5,0.00
2012-1-3,68.6,50.5,38.9,24.8,20.4,15.0,52,33,13,30.36,30.24,4,0,7,0.00
2012-1-4,68.9,48.4,33.7,25.4,22.4,14.9,67,41,13,30.44,30.30,2,0,4,0.00
2012-1-5,67.4,47.4,33.5,26.2,22.5,17.1,64,41,16,30.32,30.06,3,0,4,0.00
2012-1-6,66.3,47.5,33.5,26.8,23.3,18.1,64,42,16,30.11,29.93,3,0,5,0.00
2012-1-7,66.6,49.6,31.9,26.4,19.8,7.2,72,37,10,30.19,29.94,22,4,30,0.00
2012-1-8,61.3,50.7,42.3,18.6,14.9,9.2,37,25,13,30.30,30.15,11,3,20,0.00
2012-1-9,61.2,48.6,36.2,29.5,23.7,16.5,60,39,25,30.35,30.18,6,0,10,0.00
2012-1-10,63.2,46.3,32.5,30.4,27.0,24.4,74,50,24,30.21,30.04,4,0,7,0.00
2012-1-11,65.3,48.8,32.7,30.9,20.7,8.5,76,40,15,30.17,30.07,11,2,18,0.00
2012-1-12,60.5,45.4,34.4,14.0,8.8,2.4,41,24,10,30.23,30.12,8,1,12,0.00
2012-1-13,61.2,41.5,26.0,13.2,6.9,-4.8,53,28,7,30.35,30.21,7,0,8,0.00
2012-1-14,61.2,40.9,25.7,17.6,9.3,-0.3,56,32,9,30.28,30.10,2,0,5,0.00
2012-1-15,63.5,48.3,30.3,24.1,13.2,6.6,46,27,12,30.10,29.85,20,2,25,0.00
2012-1-16,63.9,54.4,40.5,24.8,19.7,4.7,34,26,17,30.10,29.82,21,5,28,0.00
2012-1-17,55.4,42.7,29.7,12.6,6.6,2.2,41,24,12,30.28,30.10,8,0,11,0.00
2012-1-18,57.5,42.5,29.0,20.7,14.8,9.4,54,34,18,30.30,30.16,3,0,7,0.00
2012-1-19,60.2,44.9,30.7,25.0,19.0,14.4,61,38,19,30.17,29.93,3,0,8,0.00
2012-1-20,64.0,49.0,35.2,26.7,21.6,17.0,59,36,17,30.08,29.89,3,0,5,0.00
2012-1-21,66.6,58.1,47.4,43.1,26.3,15.1,50,30,20,30.00,29.63,34,10,51,0.00
2012-1-22,57.2,48.9,37.9,23.1,19.7,16.5,49,32,23,30.15,29.99,20,1,21,0.00
2012-1-23,53.1,45.6,37.6,38.0,30.5,21.0,81,56,40,30.05,29.81,14,2,18,0.00
2012-1-24,62.3,47.3,33.1,34.7,26.1,17.5,86,50,19,30.29,30.00,19,2,21,0.00
2012-1-25,69.3,51.1,35.2,32.7,27.6,22.8,65,43,23,30.37,30.18,8,1,12,0.00
2012-1-26,68.9,52.1,37.0,35.9,33.2,29.8,76,52,27,30.21,29.98,5,0,7,0.00
2012-1-27,65.5,54.6,42.8,35.4,23.5,11.4,71,35,15,30.33,30.01,18,5,25,0.00
2012-1-28,63.5,49.0,36.5,18.1,7.0,-1.9,33,19,7,30.45,30.32,12,2,18,0.00
2012-1-29,65.2,46.1,30.9,17.0,10.7,2.3,47,27,8,30.37,30.12,4,0,7,0.00
2012-1-30,64.2,46.3,29.7,21.4,13.9,7.9,54,30,11,30.12,29.94,3,0,5,0.00
2012-1-31,68.1,51.5,40.9,25.7,18.6,11.9,48,30,12,30.13,29.97,4,0,8,0.00
2012-2-1,73.0,54.5,39.2,24.3,19.9,13.6,50,29,13,30.15,29.88,14,2,23,0.00
2012-2-2,62.6,54.7,42.3,21.3,16.7,8.4,32,23,12,30.07,29.97,19,7,34,0.00
2012-2-3,61.6,50.5,42.8,23.7,19.8,14.1,44,30,20,30.15,30.07,11,3,17,0.00
2012-2-4,63.9,49.2,33.4,26.9,22.1,19.4,63,37,19,30.21,30.08,11,2,16,0.00
2012-2-5,64.8,49.9,33.8,24.6,21.3,19.1,59,35,18,30.18,30.04,7,1,11,0.00
2012-2-6,65.0,48.4,32.9,22.6,18.4,11.6,62,34,15,30.13,30.02,9,0,11,0.00
2012-2-7,60.9,52.4,41.5,22.9,17.3,14.5,43,26,17,30.09,29.99,7,1,11,0.00
2012-2-8,71.6,58.2,47.0,32.0,24.3,18.2,45,28,16,30.20,30.05,10,1,11,0.00
2012-2-9,72.1,54.7,38.8,31.7,26.9,23.2,64,38,16,30.25,30.11,5,0,6,0.00
2012-2-10,73.9,56.6,39.5,30.5,27.5,25.4,64,36,17,30.17,29.93,8,1,12,0.00
2012-2-11,73.3,60.5,47.4,31.6,28.1,22.7,53,31,16,29.93,29.71,17,3,21,0.00
2012-2-12,67.1,57.6,50.5,37.3,30.3,22.7,51,36,26,29.84,29.75,14,3,20,0.00
2012-2-13,63.4,55.0,45.7,34.5,27.6,14.6,46,35,20,29.81,29.64,24,7,37,0.00
2012-2-14,55.4,47.8,41.6,40.3,35.3,19.9,87,63,35,29.93,29.74,5,0,11,0.07
2012-2-15,57.8,48.0,39.1,38.2,31.9,21.5,77,55,26,30.03,29.84,22,4,26,0.00
2012-2-16,63.1,52.7,44.6,36.6,30.0,23.3,71,45,24,30.18,30.03,22,4,24,0.00
2012-2-17,64.3,50.9,36.6,28.3,23.4,18.2,65,37,17,30.21,30.05,8,1,12,0.00
2012-2-18,67.1,53.2,34.4,31.2,22.9,11.8,68,35,14,30.11,29.82,14,2,18,0.00
2012-2-19,63.1,53.2,40.5,36.5,20.5,-0.2,71,33,9,30.03,29.81,22,4,27,0.00
2012-2-20,61.3,47.3,34.3,18.9,13.7,8.8,45,27,14,30.14,30.03,5,0,9,0.00
2012-2-21,67.6,50.1,32.8,23.6,17.6,12.7,55,31,12,30.21,30.11,6,0,10,0.00
2012-2-22,75.8,57.5,41.3,35.8,28.9,20.9,51,36,19,30.18,29.87,7,1,11,0.00
2012-2-23,75.3,60.2,46.1,34.6,25.8,17.3,53,29,17,30.08,29.83,14,3,18,0.00
2012-2-24,69.1,56.3,44.6,20.4,13.4,4.9,30,19,9,30.23,30.07,10,1,19,0.00
2012-2-25,75.8,55.7,36.0,21.1,12.6,-14.2,48,22,5,30.07,29.85,8,1,16,0.00
2012-2-26,63.4,54.3,44.2,11.0,0.6,-17.9,24,12,4,30.08,29.79,16,3,21,0.00
2012-2-27,64.3,51.0,37.9,37.4,21.0,1.2,64,33,18,29.79,29.63,16,2,30,0.01
2012-2-28,62.4,52.3,43.9,36.3,27.3,21.0,71,40,23,30.11,29.68,15,3,22,0.02
2012-2-29,66.1,55.7,43.9,31.2,23.2,17.7,46,30,16,30.10,29.89,20,5,30,0.00
2012-3-1,67.9,58.1,47.3,34.4,25.7,13.3,55,31,16,30.04,29.78,25,5,32,0.00
2012-3-2,60.4,49.9,40.5,16.7,3.4,-5.2,31,16,7,30.33,30.04,16,4,30,0.00
2012-3-3,67.6,51.5,33.7,19.5,11.9,0.8,40,21,12,30.42,30.27,7,1,16,0.00
2012-3-4,76.0,56.3,37.3,29.9,22.1,14.6,48,29,13,30.30,30.06,6,0,9,0.00
2012-3-5,77.0,59.5,39.6,28.6,23.6,17.9,60,29,12,30.11,29.81,7,1,13,0.00
2012-3-6,76.0,63.3,46.7,32.7,18.2,8.8,50,19,9,29.81,29.36,41,12,51,0.00
2012-3-7,59.3,48.9,39.1,23.3,14.6,4.4,48,26,16,30.17,29.68,24,8,34,0.00
2012-3-8,68.8,54.6,39.2,19.9,14.1,7.6,43,22,9,30.35,30.17,14,2,20,0.00
2012-3-9,73.7,55.8,37.3,25.6,17.5,10.1,52,25,9,30.39,30.03,6,0,8,0.00
2012-3-10,76.5,58.3,38.5,23.2,17.5,11.2,44,23,10,30.04,29.82,11,2,16,0.00
2012-3-11,80.5,67.8,51.0,24.1,16.1,7.9,28,15,7,29.89,29.74,21,6,27,0.00
2012-3-12,81.2,68.7,60.1,28.5,22.2,10.8,27,18,9,29.93,29.82,13,3,22,0.00
2012-3-13,80.5,67.8,54.7,25.7,20.8,14.9,26,17,9,29.91,29.81,21,6,27,0.00
2012-3-14,80.7,68.3,53.8,31.4,27.0,21.6,39,23,12,29.99,29.88,22,4,24,0.00
2012-3-15,80.9,66.3,48.8,36.4,27.3,20.3,49,26,11,30.05,29.87,8,1,11,0.00
2012-3-16,80.7,70.6,59.0,37.6,32.1,25.7,35,25,19,29.89,29.68,16,4,28,0.00
2012-3-17,69.4,61.7,49.9,47.4,35.6,26.5,80,40,25,29.68,29.49,23,7,34,0.23
2012-3-18,57.0,49.0,41.5,27.3,23.1,16.5,55,37,25,29.70,29.49,21,7,31,0.00
2012-3-19,60.5,49.2,37.5,29.0,24.2,14.8,67,40,19,29.97,29.70,8,1,17,0.00
2012-3-20,65.0,53.6,37.8,30.5,25.4,18.4,73,37,17,30.16,29.97,7,1,9,0.00
2012-3-21,76.7,58.7,40.8,36.2,29.2,23.6,66,37,16,30.13,29.92,7,0,10,0.00
2012-3-22,84.7,65.9,44.2,39.2,32.0,24.8,71,34,13,29.95,29.74,14,2,23,0.00
2012-3-23,85.7,70.1,53.6,33.9,28.2,19.7,41,23,10,29.90,29.81,13,2,25,0.00
2012-3-24,83.2,69.0,52.9,36.9,30.1,20.2,49,26,14,29.92,29.79,15,3,28,0.00
2012-3-25,79.8,69.2,51.4,37.4,26.8,19.6,46,22,11,29.79,29.61,25,7,41,0.00
2012-3-26,69.8,58.6,49.5,30.6,26.6,22.2,45,31,17,30.02,29.78,20,5,26,0.00
2012-3-27,77.9,61.7,42.9,32.7,25.7,16.8,63,30,11,30.02,29.84,11,1,20,0.00
2012-3-28,79.0,68.2,54.5,35.7,25.8,16.4,34,21,13,29.94,29.83,27,5,29,0.00
2012-3-29,79.4,66.9,54.2,41.6,33.3,27.5,48,30,15,29.99,29.83,5,1,10,0.00
2012-3-30,86.1,70.1,51.0,36.9,32.4,23.9,54,28,13,29.97,29.78,9,1,16,0.00
2012-3-31,91.0,74.3,58.9,35.3,27.8,19.2,41,20,8,29.83,29.62,22,6,31,0.00
2012-4-1,70.1,61.7,51.4,38.5,22.2,9.3,46,24,11,29.97,29.69,25,9,29,0.00
2012-4-2,70.4,60.5,50.1,19.7,11.8,5.9,19,15,9,30.05,29.89,23,6,29,0.00
2012-4-3,77.2,62.2,43.2,29.5,16.9,11.3,40,19,8,30.05,29.82,7,1,12,0.00
2012-4-4,85.7,70.4,51.7,30.5,17.2,3.6,34,16,5,29.87,29.66,18,5,29,0.00
2012-4-5,76.7,67.5,56.2,26.1,10.6,-27.1,22,12,2,29.81,29.63,32,11,40,0.00
2012-4-6,68.6,58.0,49.2,21.2,12.4,1.0,28,18,7,30.15,29.81,15,3,21,0.00
2012-4-7,79.0,60.4,38.5,22.4,12.2,-0.8,45,19,5,30.18,29.99,8,1,14,0.00
2012-4-8,85.3,64.9,41.3,21.2,10.9,0.6,35,15,4,30.10,29.91,7,1,10,0.00
2012-4-9,90.1,69.9,46.5,24.1,17.4,10.6,36,16,6,30.00,29.79,15,2,23,0.00
2012-4-10,90.1,73.8,54.4,31.5,22.6,13.7,38,17,7,29.85,29.65,19,4,33,0.00
2012-4-11,73.2,67.2,58.9,36.5,29.2,24.3,36,24,16,29.89,29.67,23,8,32,0.00
2012-4-12,72.3,62.1,50.5,32.2,26.3,14.7,47,28,12,29.99,29.81,27,7,28,0.00
2012-4-13,67.9,58.4,48.8,45.5,32.6,21.2,87,41,17,29.85,29.56,20,5,33,0.09
2012-4-14,61.8,52.7,44.3,47.6,37.7,31.3,85,58,35,29.91,29.54,18,2,25,0.07
2012-4-15,76.0,60.4,43.3,46.5,38.2,28.7,91,51,19,30.08,29.91,9,1,13,0.00
2012-4-16,80.3,66.2,48.3,42.7,34.4,28.0,69,34,15,30.17,30.00,5,0,11,0.00
2012-4-17,86.1,70.2,50.8,39.4,32.5,27.1,55,28,12,30.07,29.88,8,1,12,0.00
2012-4-18,91.2,76.5,58.3,39.9,27.8,12.4,42,20,6,29.91,29.75,14,2,22,0.00
2012-4-19,91.8,79.4,66.1,42.0,36.0,31.1,38,22,12,29.95,29.81,16,2,24,0.00
2012-4-20,92.3,79.6,65.6,43.3,36.2,31.6,37,22,12,30.06,29.89,9,1,13,0.00
2012-4-21,98.2,80.2,59.6,44.4,37.1,29.2,53,25,9,29.98,29.82,8,1,15,0.00
2012-4-22,102.0,83.0,61.5,43.3,34.0,22.6,49,21,7,29.93,29.77,11,1,16,0.00
2012-4-23,101.2,83.4,61.3,41.6,32.6,24.3,45,19,7,29.88,29.73,18,3,24,0.00
2012-4-24,93.8,81.8,68.3,44.0,34.0,22.1,35,19,9,29.93,29.77,18,3,22,0.00
2012-4-25,87.2,78.9,74.4,44.6,33.1,18.9,31,20,10,29.96,29.72,15,2,20,0.00
2012-4-26,77.7,71.8,65.3,44.8,41.0,33.2,45,33,23,29.84,29.65,29,8,31,0.00
2012-4-27,84.5,71.6,58.7,45.5,32.8,14.8,55,29,8,30.02,29.84,14,1,24,0.00
2012-4-28,84.7,73.4,59.2,34.6,26.1,18.7,29,18,12,29.93,29.75,13,2,19,0.00
2012-4-29,87.2,74.7,59.3,34.3,27.5,22.3,28,18,11,29.93,29.79,14,1,14,0.00
2012-4-30,96.1,77.9,56.3,37.5,27.5,13.4,45,20,6,29.90,29.70,13,3,21,0.00
2012-5-1,93.6,82.8,68.9,40.0,34.5,28.3,30,18,10,29.72,29.56,18,5,23,0.00
2012-5-2,89.3,79.5,70.4,41.2,33.8,26.4,26,19,15,29.77,29.64,19,5,25,0.00
2012-5-3,92.3,80.1,67.9,38.4,31.0,22.7,31,18,9,29.83,29.73,18,6,26,0.00
2012-5-4,89.3,79.5,67.1,29.2,19.2,8.1,22,11,5,29.89,29.78,21,8,29,0.00
2012-5-5,87.2,75.9,63.4,29.8,20.6,11.3,21,13,7,29.98,29.79,18,4,23,0.00
2012-5-6,85.5,74.8,60.5,29.0,16.2,10.2,17,11,7,30.01,29.86,14,4,21,0.00
2012-5-7,83.8,73.1,63.2,31.6,16.5,6.5,26,12,6,29.99,29.85,25,6,34,0.00
2012-5-8,92.3,79.1,63.5,32.2,24.8,19.9,30,14,8,29.94,29.81,16,3,22,0.00
2012-5-9,80.7,66.6,59.3,37.2,29.3,22.9,35,25,15,29.93,29.85,0,0,4,0.00
2012-5-10,99.3,83.7,64.5,37.6,28.2,10.5,30,15,4,29.78,29.58,8,1,20,0.00
2012-5-11,96.4,84.6,67.5,36.7,29.0,23.2,31,14,8,29.80,29.64,7,2,17,0.00
2012-5-12,97.7,82.0,64.7,33.8,19.6,2.0,26,12,3,29.97,29.81,4,1,13,0.00
2012-5-13,100.5,82.7,63.8,30.7,18.7,-0.5,23,11,3,30.00,29.84,9,2,16,0.00
2012-5-14,100.6,85.1,61.1,35.1,13.7,-7.5,34,9,2,29.99,29.72,7,2,17,0.00
2012-5-15,97.7,86.3,76.4,18.9,0.8,-24.0,10,5,1,29.78,29.67,12,7,25,0.00
2012-5-16,102.8,86.6,63.1,35.1,21.8,5.4,24,10,4,29.82,29.65,6,2,14,0.00
2012-5-17,104.4,90.9,72.9,40.1,25.1,7.6,27,11,4,29.72,29.46,17,8,36,0.00
2012-5-18,91.8,82.7,72.1,36.1,27.0,18.5,22,14,7,29.74,29.51,16,6,28,0.00
2012-5-19,93.0,80.2,67.1,39.1,31.2,24.2,29,18,9,29.91,29.75,6,1,11,0.00
2012-5-20,99.7,81.9,61.6,44.1,28.0,5.3,43,17,3,29.94,29.79,6,1,10,0.00
2012-5-21,105.2,86.9,65.8,39.8,28.2,15.9,32,15,5,29.90,29.72,9,2,17,0.00
2012-5-22,105.5,93.2,77.2,41.3,29.7,15.1,22,11,4,29.79,29.57,17,5,23,0.00
2012-5-23,99.7,89.8,80.4,34.4,22.9,6.3,17,10,4,29.65,29.45,14,4,22,0.00
2012-5-24,93.5,83.3,72.1,30.5,21.8,14.6,15,11,7,29.69,29.36,18,6,25,0.00
2012-5-25,83.9,76.4,63.1,39.4,29.0,9.4,26,18,7,29.57,29.37,23,13,34,0.00
2012-5-26,78.0,65.8,54.8,33.6,28.6,25.0,38,26,15,29.90,29.57,24,9,29,0.00
2012-5-27,84.1,72.1,58.3,37.4,31.8,25.8,40,24,13,29.99,29.88,8,3,16,0.00
2012-5-28,91.1,76.6,56.6,39.0,27.2,16.6,39,19,7,29.97,29.80,9,2,16,0.00
2012-5-29,98.8,82.2,62.1,38.7,21.4,-7.2,29,13,2,29.90,29.78,14,4,18,0.00
2012-5-30,99.8,85.4,69.3,38.3,25.7,10.1,26,13,4,29.92,29.80,12,2,17,0.00
2012-5-31,104.7,87.3,65.7,43.4,32.3,19.7,36,16,5,29.91,29.71,11,2,18,0.00
2012-6-1,108.4,91.3,69.5,43.9,31.5,16.9,34,15,5,29.80,29.60,10,2,13,0.00
2012-6-2,106.6,94.5,79.7,41.6,23.2,-13.5,25,9,3,29.70,29.61,15,5,22,0.00
2012-6-3,104.4,90.7,72.2,43.6,31.0,15.4,29,14,5,29.81,29.69,16,3,20,0.00
2012-6-4,101.2,88.6,72.1,43.3,35.5,27.5,33,16,9,29.80,29.62,17,5,24,0.00
2012-6-5,87.7,79.3,70.6,46.1,28.3,4.7,32,17,6,29.78,29.64,31,10,36,0.00
2012-6-6,90.0,79.0,67.7,26.5,15.7,5.0,16,10,6,29.89,29.72,14,4,16,0.00
2012-6-7,97.2,83.5,66.6,29.6,21.1,8.7,25,11,4,29.89,29.72,9,2,14,0.00
2012-6-8,101.4,88.1,69.3,40.8,28.6,20.8,29,13,6,29.76,29.58,20,5,25,0.00
2012-6-9,98.5,88.7,77.2,42.2,24.4,-8.9,26,12,2,29.75,29.54,26,8,28,0.00
2012-6-10,91.4,80.3,68.6,31.3,2.4,-10.5,19,6,2,29.96,29.75,18,5,22,0.00
2012-6-11,98.7,83.0,65.6,37.9,20.2,2.3,25,11,3,29.96,29.82,8,2,12,0.00
2012-6-12,104.0,87.5,63.9,36.3,17.8,-1.7,32,11,2,29.91,29.71,11,2,16,0.00
2012-6-13,104.6,92.1,74.5,31.6,20.5,5.9,19,8,3,29.75,29.58,13,3,18,0.00
2012-6-14,103.1,91.3,76.1,38.8,26.6,17.0,26,11,5,29.74,29.62,19,4,21,0.00
2012-6-15,100.2,89.6,75.2,43.0,29.7,15.7,26,13,5,29.76,29.65,11,3,17,0.00
2012-6-16,105.5,89.4,72.7,41.2,29.3,12.4,27,13,4,29.88,29.75,7,2,12,0.00
2012-6-17,108.0,93.9,74.1,39.1,25.8,15.1,25,10,4,29.93,29.72,16,4,23,0.00
2012-6-18,107.2,96.9,82.5,26.9,17.0,1.3,11,6,2,29.73,29.56,22,9,31,0.00
2012-6-19,106.6,94.8,81.8,31.6,24.3,7.8,15,9,4,29.69,29.55,16,6,27,0.00
2012-6-20,105.9,94.1,77.7,41.6,16.9,7.4,22,7,3,29.80,29.62,13,4,18,0.00
2012-6-21,107.3,93.4,73.8,46.8,24.5,9.4,33,11,3,29.79,29.63,19,4,33,0.00
2012-6-22,100.9,92.1,82.6,37.1,22.1,3.9,18,9,3,29.74,29.59,18,9,30,0.00
2012-6-23,102.4,90.5,78.5,33.7,26.4,16.0,19,11,5,29.71,29.60,17,6,26,0.00
2012-6-24,105.5,92.7,77.9,41.6,28.0,7.0,26,13,3,29.86,29.72,19,4,24,0.00
2012-6-25,105.0,93.3,81.1,30.6,20.0,-0.8,16,8,2,29.87,29.71,18,6,28,0.00
2012-6-26,103.4,91.2,79.0,26.4,10.2,-15.9,12,6,1,29.80,29.65,18,6,23,0.00
2012-6-27,106.8,92.0,71.7,35.3,27.5,17.4,24,11,5,29.81,29.70,18,4,22,0.00
2012-6-28,108.0,96.7,83.8,41.6,31.7,19.7,18,10,8,29.91,29.80,20,5,27,0.00
2012-6-29,106.7,96.5,86.9,27.8,11.9,-15.8,10,5,1,29.91,29.76,18,8,25,0.00
2012-6-30,108.0,94.6,78.4,35.0,19.5,-1.2,19,8,2,29.84,29.67,13,5,21,0.00
2012-7-1,109.1,93.7,77.2,43.5,29.3,8.8,25,12,3,29.76,29.61,16,5,21,0.00
2012-7-2,107.9,94.1,77.0,42.4,31.7,20.8,27,13,5,29.79,29.66,13,4,22,0.00
2012-7-3,105.8,93.6,78.7,52.3,41.9,25.5,29,18,7,29.82,29.67,13,5,29,0.00
2012-7-4,95.5,84.8,77.2,64.1,54.5,44.7,62,38,21,29.89,29.74,24,5,35,0.00
2012-7-5,99.2,86.5,72.3,62.9,58.2,50.0,70,42,21,29.94,29.77,13,3,17,0.00
2012-7-6,105.2,93.4,78.4,51.9,41.9,31.0,35,19,8,29.94,29.80,10,2,13,0.00
2012-7-7,108.8,95.9,80.1,44.9,36.4,28.5,25,14,7,29.94,29.78,8,3,14,0.00
2012-7-8,112.0,98.5,83.2,46.3,34.0,24.1,25,12,5,29.92,29.77,9,2,13,0.00
2012-7-9,114.1,101.4,87.0,44.1,31.5,24.5,22,10,5,29.90,29.73,10,2,15,0.00
2012-7-10,115.5,103.0,86.1,45.9,35.3,20.0,24,11,4,29.83,29.66,10,2,10,0.00
2012-7-11,113.8,102.3,88.0,52.0,44.5,35.9,26,15,9,29.82,29.67,16,4,29,0.00
2012-7-12,103.4,95.5,87.8,63.1,55.8,50.3,36,27,20,29.89,29.74,21,5,35,0.00
2012-7-13,91.4,83.3,75.7,68.0,62.8,54.1,75,51,30,30.01,29.87,15,3,22,0.03
2012-7-14,94.6,84.4,72.8,68.0,64.4,60.0,82,53,32,29.97,29.81,17,4,26,0.04
2012-7-15,94.9,84.2,76.5,67.2,60.4,54.3,62,46,29,29.96,29.78,13,4,22,0.08
2012-7-16,100.3,87.4,74.7,63.0,48.8,13.2,63,34,5,29.87,29.70,21,4,26,0.00
2012-7-17,99.2,88.1,71.7,44.5,26.7,9.9,31,13,4,29.87,29.77,18,4,24,0.00
2012-7-18,102.3,88.2,70.2,43.8,30.0,15.0,33,15,5,29.94,29.81,9,2,15,0.00
2012-7-19,103.9,92.1,77.4,46.7,38.0,31.3,26,16,10,29.96,29.84,14,3,19,0.00
2012-7-20,106.8,95.2,80.5,52.1,48.9,45.3,34,22,15,29.96,29.81,8,2,13,0.00
2012-7-21,108.6,97.3,84.3,58.1,52.5,48.7,37,23,15,29.93,29.76,14,3,19,0.00
2012-7-22,105.9,96.7,86.0,62.6,57.8,52.1,43,29,17,29.94,29.77,9,4,15,0.00
2012-7-23,100.8,93.6,81.8,68.1,60.5,54.8,61,35,23,29.94,29.78,18,4,20,0.11
2012-7-24,106.0,95.1,83.8,61.8,53.5,40.8,40,26,13,29.90,29.73,14,4,20,0.00
2012-7-25,106.9,96.8,84.3,40.7,31.7,24.4,18,11,6,29.90,29.75,17,4,18,0.00
2012-7-26,108.0,95.5,79.7,46.0,30.9,10.9,26,12,4,29.88,29.74,17,4,23,0.00
2012-7-27,107.1,94.4,77.4,31.9,16.4,-3.2,18,7,2,29.90,29.75,12,3,17,0.00
2012-7-28,109.0,92.8,73.5,35.5,17.1,-0.4,24,8,2,29.92,29.76,10,2,18,0.00
2012-7-29,104.2,92.7,77.5,54.3,41.0,24.0,26,17,10,29.95,29.81,11,2,15,0.00
2012-7-30,98.4,88.4,81.4,67.4,62.4,51.9,61,43,26,29.99,29.87,16,5,26,0.00
2012-7-31,89.9,82.2,76.7,70.6,67.2,64.4,81,61,45,30.04,29.93,13,3,17,0.00
2012-8-1,94.6,83.9,74.2,72.0,66.3,58.2,89,60,35,30.06,29.92,9,2,13,0.29
2012-8-2,104.1,91.7,76.7,65.5,58.2,46.8,63,36,15,29.97,29.76,8,2,13,0.00
2012-8-3,106.7,95.9,83.6,63.4,56.8,47.4,49,29,15,29.85,29.69,12,3,15,0.00
2012-8-4,105.6,95.7,83.8,58.4,51.5,43.6,42,24,15,29.86,29.76,15,2,27,0.00
2012-8-5,107.9,96.2,82.3,54.0,49.1,41.3,35,21,11,29.96,29.85,12,2,16,0.00
2012-8-6,106.1,96.2,88.2,57.9,52.3,47.7,35,24,15,30.04,29.89,10,2,22,0.00
2012-8-7,110.3,97.9,82.6,57.8,53.6,48.1,43,24,13,29.97,29.81,10,2,22,0.00
2012-8-8,112.2,100.1,85.4,57.8,51.5,42.9,35,21,12,29.92,29.77,11,2,15,0.00
2012-8-9,113.5,100.3,88.0,55.9,50.4,37.3,32,20,8,29.92,29.75,20,3,30,0.00
2012-8-10,111.9,100.5,88.1,59.0,50.1,35.3,35,20,9,29.87,29.67,9,2,18,0.00
2012-8-11,110.9,99.2,87.4,61.4,50.6,41.9,33,21,12,29.87,29.70,19,3,23,0.02
2012-8-12,110.2,98.0,84.7,63.2,54.3,43.8,46,25,13,29.87,29.73,15,3,21,0.00
2012-8-13,110.3,99.4,87.2,59.0,52.0,41.5,38,22,11,29.88,29.70,13,4,22,0.00
2012-8-14,107.4,94.8,84.1,63.5,56.5,48.9,42,29,16,29.87,29.68,23,3,31,0.00
2012-8-15,109.1,96.5,83.4,57.5,51.3,37.1,38,23,9,29.81,29.69,14,3,19,0.00
2012-8-16,103.5,94.3,85.1,63.5,56.7,46.4,36,29,20,29.89,29.77,12,3,34,0.00
2012-8-17,101.6,92.1,82.2,67.9,60.9,57.7,62,36,27,29.96,29.80,13,5,20,0.12
2012-8-18,102.8,91.1,80.9,68.7,63.8,60.2,63,42,26,29.94,29.76,15,3,17,0.00
2012-8-19,105.5,96.2,86.6,64.7,61.0,56.6,46,33,22,29.86,29.69,11,3,18,0.00
2012-8-20,101.6,91.8,82.8,66.4,62.7,58.2,54,39,27,29.93,29.75,13,3,24,0.00
2012-8-21,102.5,92.4,83.6,67.3,62.2,58.4,49,37,28,29.85,29.73,15,3,19,0.01
2012-8-22,88.5,75.2,69.9,68.9,66.3,63.0,92,76,43,30.01,29.81,15,3,25,1.74
2012-8-23,88.0,78.4,68.0,66.7,64.6,62.5,90,65,45,29.95,29.80,9,1,9,0.00
2012-8-24,99.2,86.9,74.9,68.9,64.9,59.6,77,51,28,29.89,29.73,6,1,10,0.00
2012-8-25,102.1,91.6,78.2,67.0,61.5,56.1,66,39,23,29.83,29.68,9,2,15,0.00
2012-8-26,103.1,92.2,79.4,61.7,55.4,47.5,52,31,16,29.87,29.75,13,3,21,0.00
2012-8-27,105.1,92.2,75.9,58.4,46.7,29.9,53,25,8,29.96,29.82,11,2,14,0.00
2012-8-28,107.2,93.0,75.5,52.3,44.6,33.9,41,21,9,29.96,29.78,6,2,13,0.00
2012-8-29,106.6,92.7,79.4,61.1,53.8,46.2,45,28,15,29.87,29.73,30,3,34,0.00
2012-8-30,102.1,90.3,82.9,64.8,58.1,50.0,50,35,23,29.83,29.75,10,2,19,0.00
2012-8-31,95.8,87.9,82.1,65.4,61.7,57.8,54,42,31,29.88,29.75,12,3,27,0.09
2012-9-1,100.1,89.2,77.1,65.1,43.0,17.4,59,25,6,29.90,29.79,17,3,21,0.00
2012-9-2,102.6,87.2,68.8,45.0,34.7,17.8,39,17,6,29.94,29.78,7,2,13,0.00
2012-9-3,103.8,89.1,72.3,45.4,34.4,21.8,28,15,8,29.96,29.82,10,2,15,0.00
2012-9-4,104.5,92.8,81.3,62.1,54.3,42.0,51,29,15,29.98,29.83,11,3,17,0.00
2012-9-5,100.6,90.1,82.3,63.4,59.7,50.9,52,37,23,29.95,29.83,19,3,31,0.00
2012-9-6,102.0,93.3,84.4,56.6,53.6,49.9,38,27,18,29.89,29.77,15,5,19,0.00
2012-9-7,102.8,93.1,83.2,57.4,54.2,51.0,37,28,19,29.96,29.84,9,2,13,0.00
2012-9-8,103.7,92.7,78.7,59.7,50.3,40.8,52,27,12,30.00,29.83,9,2,15,0.00
2012-9-9,101.3,90.8,78.0,63.0,55.8,49.2,43,32,21,29.95,29.78,8,2,17,0.00
2012-9-10,97.7,88.9,80.2,64.2,59.1,53.0,57,38,24,29.94,29.77,14,6,24,0.00
2012-9-11,88.0,78.0,69.0,66.0,62.9,58.2,87,62,38,29.99,29.84,20,4,28,0.67
2012-9-12,93.5,79.7,67.8,65.7,58.8,44.9,90,55,20,30.06,29.93,5,1,9,0.00
2012-9-13,96.8,83.4,66.3,59.0,39.9,24.5,65,28,9,30.15,30.02,15,3,17,0.00
2012-9-14,96.8,82.2,65.0,51.6,44.0,32.7,59,30,11,30.15,30.00,5,1,8,0.00
2012-9-15,98.2,83.3,66.8,52.1,43.5,35.4,59,28,12,30.12,29.95,7,1,12,0.00
2012-9-16,99.2,84.9,69.5,48.3,39.3,30.0,38,22,9,30.05,29.88,9,2,16,0.00
2012-9-17,98.0,84.4,69.1,46.0,40.3,31.6,41,23,11,29.98,29.86,6,1,9,0.00
2012-9-18,99.8,84.4,68.2,51.6,40.1,30.7,46,24,10,30.03,29.90,8,1,12,0.00
2012-9-19,99.8,85.0,68.3,48.1,39.7,29.7,47,23,9,30.02,29.89,7,1,12,0.00
2012-9-20,99.2,84.2,67.4,49.2,41.0,28.9,50,25,9,30.00,29.87,4,1,10,0.00
2012-9-21,100.2,84.4,67.3,49.2,42.1,33.5,52,26,10,29.97,29.82,8,1,10,0.00
2012-9-22,98.5,84.4,69.7,50.7,43.9,38.7,49,26,14,29.95,29.84,7,1,11,0.00
2012-9-23,98.3,84.9,70.7,50.7,42.7,33.4,48,25,11,29.97,29.85,14,3,22,0.00
2012-9-24,95.8,87.5,78.9,46.7,41.3,37.9,32,20,14,29.88,29.73,18,5,25,0.00
2012-9-25,91.2,81.4,69.9,47.8,43.0,38.5,43,27,16,29.88,29.77,11,2,15,0.00
2012-9-26,92.7,80.2,67.8,47.8,44.0,39.4,45,29,17,29.92,29.83,7,2,13,0.00
2012-9-27,94.3,81.0,66.7,48.9,44.5,40.3,52,30,16,29.98,29.85,5,1,9,0.00
2012-9-28,94.4,80.6,65.5,49.7,42.3,32.3,50,28,12,29.97,29.82,4,1,7,0.00
2012-9-29,98.2,81.7,65.2,47.6,39.9,28.5,51,26,9,30.01,29.89,5,1,8,0.00
2012-9-30,99.1,82.7,65.9,45.3,38.1,28.7,46,23,9,30.06,29.92,6,1,8,0.00
2012-10-1,99.9,83.0,65.9,45.6,36.4,25.9,44,22,8,30.06,29.88,6,1,8,0.00
2012-10-2,100.9,82.9,65.4,43.5,36.3,28.0,45,22,8,29.94,29.76,5,1,7,0.00
2012-10-3,100.7,83.8,65.5,42.7,34.3,26.7,41,19,8,29.90,29.79,16,3,21,0.00
2012-10-4,94.7,83.6,69.2,43.2,36.3,29.2,34,19,10,29.97,29.84,14,3,18,0.00
2012-10-5,90.6,80.1,65.9,43.7,38.0,34.0,38,23,14,29.98,29.84,7,1,14,0.00
2012-10-6,90.4,78.3,64.7,45.6,36.8,29.5,44,25,12,29.92,29.78,9,1,13,0.00
2012-10-7,87.9,75.5,61.4,37.8,30.3,20.3,39,21,10,29.96,29.82,11,2,17,0.00
2012-10-8,91.7,76.3,58.2,40.5,33.8,22.2,51,24,9,29.92,29.77,14,2,18,0.00
2012-10-9,91.7,81.2,69.0,40.1,33.2,25.3,28,18,11,29.90,29.77,12,3,21,0.00
2012-10-10,85.0,75.0,66.8,58.5,44.3,33.0,71,35,21,29.91,29.80,12,2,25,0.00
2012-10-11,66.9,63.3,53.2,59.8,57.4,49.4,91,81,69,29.90,29.79,11,3,19,0.81
2012-10-12,70.9,61.3,52.6,53.1,48.0,42.3,93,65,37,30.06,29.88,11,3,15,0.01
2012-10-13,75.0,65.0,54.6,53.3,48.9,45.9,77,57,39,30.19,30.05,8,1,11,0.00
2012-10-14,84.4,70.0,56.6,54.9,49.3,41.0,84,53,23,30.21,30.03,9,1,13,0.00
2012-10-15,85.7,71.7,57.4,51.5,48.5,43.4,76,47,23,30.05,29.88,7,1,9,0.00
2012-10-16,87.0,72.6,57.4,51.3,48.0,42.6,75,45,22,29.93,29.73,5,1,7,0.00
2012-10-17,87.0,73.3,60.8,51.6,41.8,28.2,70,37,12,30.00,29.80,10,2,15,0.00
2012-10-18,86.0,69.9,54.0,42.6,32.9,19.5,61,31,9,30.11,29.97,6,1,8,0.00
2012-10-19,86.8,69.1,52.3,43.0,36.2,23.0,65,34,10,30.03,29.82,7,1,7,0.00
2012-10-20,87.2,70.2,52.4,44.0,39.4,32.0,72,37,14,29.84,29.64,12,2,14,0.00
2012-10-21,81.8,74.8,67.3,48.5,43.6,37.9,42,33,27,29.76,29.67,17,7,28,0.00
2012-10-22,80.7,73.0,65.3,44.7,38.3,31.3,43,29,20,29.81,29.72,31,8,35,0.00
2012-10-23,75.5,67.9,61.2,44.8,32.4,15.0,51,30,10,29.85,29.73,23,9,30,0.00
2012-10-24,73.9,65.3,57.6,34.9,28.6,18.2,38,26,13,30.00,29.77,19,5,24,0.00
2012-10-25,73.0,61.9,48.5,31.8,25.9,19.5,51,28,14,30.19,30.00,18,2,23,0.00
2012-10-26,68.8,60.2,52.8,28.8,20.9,9.7,39,23,10,30.29,30.08,18,5,22,0.00
2012-10-27,77.3,60.6,43.5,33.6,25.5,17.3,59,30,11,30.10,29.95,6,1,10,0.00
2012-10-28,81.1,62.7,46.8,38.2,32.9,25.5,63,37,14,30.07,29.95,3,0,8,0.00
2012-10-29,82.3,63.9,48.2,39.4,34.3,25.8,64,37,13,30.13,30.01,3,0,5,0.00
2012-10-30,83.2,64.0,48.7,39.4,35.2,28.0,65,38,14,30.10,29.96,3,0,5,0.00
2012-10-31,81.8,64.4,48.6,39.5,35.4,27.8,67,38,15,30.06,29.90,5,1,8,0.00
2012-11-1,80.9,64.9,51.0,41.1,34.5,21.1,65,37,14,29.96,29.83,8,2,14,0.00
2012-11-2,79.4,64.4,50.7,35.8,31.7,22.4,52,32,13,29.99,29.89,6,1,8,0.00
2012-11-3,80.3,62.9,47.8,37.8,32.1,25.5,60,35,14,30.10,29.97,4,0,8,0.00
2012-11-4,83.0,63.7,47.2,39.0,34.3,28.3,63,37,14,30.20,30.09,5,1,6,0.00
2012-11-5,85.4,67.2,50.6,42.7,37.5,33.2,60,37,16,30.22,30.07,5,1,11,0.00
2012-11-6,84.8,66.8,50.6,41.8,37.7,32.5,67,38,16,30.16,30.00,5,1,9,0.00
2012-11-7,81.5,65.2,51.0,43.8,38.9,35.7,63,41,20,30.05,29.82,4,1,8,0.00
2012-11-8,78.3,68.9,54.2,50.1,39.8,31.1,62,37,21,29.82,29.66,26,7,34,0.00
2012-11-9,66.3,59.2,46.6,48.1,31.6,15.0,60,38,17,29.79,29.65,25,8,34,0.00
2012-11-10,55.5,48.6,41.4,30.9,24.5,18.2,63,40,25,30.09,29.78,13,4,20,0.00
2012-11-11,55.5,47.8,41.3,22.7,18.7,13.2,45,32,20,30.39,30.09,12,2,16,0.00
2012-11-12,61.8,47.4,33.1,23.1,18.1,9.8,65,35,13,30.40,30.20,7,1,10,0.00
2012-11-13,68.2,50.6,35.4,24.5,19.0,9.5,61,33,11,30.27,30.11,5,1,11,0.00
2012-11-14,67.4,51.7,36.5,30.4,25.4,20.2,62,39,17,30.19,30.06,4,0,6,0.00
2012-11-15,65.9,53.3,41.3,36.7,29.1,21.9,64,42,19,30.17,30.05,5,0,7,0.00
2012-11-16,70.5,55.8,44.8,37.6,33.0,26.5,61,44,24,30.09,29.97,7,1,9,0.00
2012-11-17,73.9,60.7,45.1,43.8,39.4,32.8,68,47,33,30.03,29.92,15,3,19,0.00
2012-11-18,73.0,64.6,55.6,46.0,40.8,31.9,57,43,23,30.09,29.95,17,5,22,0.00
2012-11-19,71.2,58.3,45.9,43.5,40.2,37.2,73,53,34,30.22,30.09,5,1,10,0.00
2012-11-20,71.3,56.5,43.8,42.1,39.4,37.7,79,56,31,30.19,30.02,5,0,8,0.00
2012-11-21,72.0,56.2,43.2,40.0,37.8,36.0,78,53,28,30.07,29.94,4,0,6,0.00
2012-11-22,74.7,57.8,43.0,38.7,35.7,32.6,74,47,22,30.23,30.03,8,1,9,0.00
2012-11-23,73.9,58.0,42.5,38.2,31.7,27.1,72,41,18,30.30,30.16,6,1,8,0.00
2012-11-24,73.5,55.6,42.2,33.3,30.5,26.3,61,41,18,30.20,29.99,3,0,5,0.00
2012-11-25,71.5,53.7,39.5,33.5,30.4,25.4,70,45,19,29.99,29.85,3,0,4,0.00
2012-11-26,72.4,55.2,40.2,32.9,29.2,22.7,70,41,16,30.14,29.96,5,1,11,0.00
2012-11-27,67.6,53.3,40.1,36.2,29.9,26.1,66,43,22,30.22,30.09,4,0,5,0.00
2012-11-28,72.1,57.1,40.5,34.6,32.0,27.4,72,42,21,30.15,29.99,9,1,18,0.00
2012-11-29,74.3,67.8,61.2,47.5,42.5,30.4,49,40,25,30.09,30.00,18,6,25,0.00
2012-11-30,72.3,66.8,62.1,48.3,45.6,42.4,55,47,39,30.03,29.91,20,6,32,0.00
2012-12-1,67.6,61.0,53.3,47.3,45.3,42.6,72,57,45,30.07,29.96,17,2,25,0.00
2012-12-2,73.6,62.3,47.7,49.2,45.3,42.5,82,56,37,30.01,29.80,35,6,42,0.00
2012-12-3,71.4,60.4,49.7,47.6,45.1,43.0,79,58,40,30.18,29.92,9,1,19,0.00
2012-12-4,70.3,58.4,48.2,46.8,44.7,41.9,79,62,41,30.27,30.15,3,0,6,0.00
2012-12-5,65.6,55.5,47.8,46.0,43.8,41.8,80,66,46,30.15,29.97,5,0,7,0.00
2012-12-6,72.9,56.6,43.4,44.8,42.2,38.6,85,61,34,29.97,29.84,3,0,6,0.00
2012-12-7,70.9,58.2,44.5,41.4,32.4,25.7,75,41,19,30.01,29.90,10,2,14,0.00
2012-12-8,68.8,52.5,40.9,30.6,28.0,24.6,59,41,20,29.97,29.87,7,1,8,0.00
2012-12-9,62.4,52.0,43.6,30.7,24.4,19.0,57,36,23,30.26,29.91,16,3,21,0.00
2012-12-10,60.3,47.2,36.7,27.2,22.8,19.3,58,40,23,30.27,30.08,5,1,7,0.00
2012-12-11,61.6,46.2,34.1,28.2,25.6,23.5,68,47,24,30.11,29.89,4,0,7,0.00
2012-12-12,62.5,51.4,38.9,29.6,25.0,21.0,65,39,21,29.89,29.76,13,2,19,0.00
2012-12-13,59.5,53.3,48.6,46.7,38.5,25.7,92,60,34,29.80,29.66,9,2,16,0.29
2012-12-14,55.4,49.9,44.5,46.1,39.7,28.7,92,71,40,29.89,29.59,20,4,31,0.27
2012-12-15,53.1,46.8,41.8,40.4,34.8,30.9,81,64,47,29.99,29.85,13,3,15,0.04
2012-12-16,52.1,44.9,36.3,39.2,35.0,31.7,85,69,50,30.11,29.97,8,2,12,0.00
2012-12-17,58.7,49.0,42.3,43.3,40.3,38.1,85,72,56,30.08,29.87,14,1,16,0.00
2012-12-18,58.8,50.1,41.7,44.9,38.6,27.8,88,65,48,29.86,29.60,24,6,33,0.01
2012-12-19,48.8,43.0,34.4,29.2,13.8,4.1,54,32,16,30.40,29.82,17,7,25,0.00
2012-12-20,50.3,38.2,27.4,22.0,18.3,13.0,72,47,24,30.40,30.23,7,1,8,0.00
2012-12-21,52.5,39.4,27.1,26.4,22.3,19.7,75,53,29,30.23,30.09,6,1,8,0.00
2012-12-22,56.5,44.4,29.7,30.0,25.8,22.7,76,51,31,30.12,29.97,11,2,18,0.00
2012-12-23,56.8,48.6,37.0,35.7,31.7,27.8,70,53,37,30.11,29.93,13,2,18,0.00
2012-12-24,64.8,50.9,39.4,40.5,28.3,13.0,80,46,18,30.14,29.83,16,4,25,0.00
2012-12-25,52.6,44.7,37.9,22.8,16.6,13.3,51,33,22,30.22,29.93,9,2,17,0.00
2012-12-26,54.3,43.8,35.5,27.1,24.1,20.6,61,47,31,29.92,29.77,9,2,12,0.00
2012-12-27,56.1,43.7,31.1,31.6,25.2,21.3,81,52,26,30.08,29.85,12,2,15,0.00
2012-12-28,54.7,42.6,30.2,25.7,22.6,19.3,74,47,27,30.22,30.08,5,1,9,0.00
2012-12-29,56.0,44.5,31.2,26.7,24.1,21.2,77,47,27,30.13,29.95,7,0,7,0.00
2012-12-30,50.5,41.9,34.1,30.7,27.6,23.8,71,58,38,29.99,29.87,12,1,12,0.00
2012-12-31,50.8,42.2,31.5,23.7,19.2,16.3,63,41,26,30.24,30.00,14,3,19,0.00
2013-1-1,51.7,39.7,27.9,20.0,16.2,13.4,65,41,23,30.34,30.22,11,2,14,0.00